Year,Month,Day,Hour,Minute,Value (Times are PST for temperature in C)
2008,05,24,00,00,12.00
2008,05,24,00,01,12.00
2008,05,24,00,02,12.00
2008,05,24,00,03,11.90
2008,05,24,00,04,11.90
2008,05,24,00,05,11.90
2008,05,24,00,06,11.90
2008,05,24,00,07,11.80
2008,05,24,00,08,11.80
2008,05,24,00,09,11.80
2008,05,24,00,10,11.80
2008,05,24,00,11,11.70
2008,05,24,00,12,11.70
2008,05,24,00,13,11.70
2008,05,24,00,14,11.60
2008,05,24,00,15,11.60
2008,05,24,00,16,11.60
2008,05,24,00,17,11.60
2008,05,24,00,18,11.50
2008,05,24,00,19,11.50
2008,05,24,00,20,11.50
2008,05,24,00,21,11.40
2008,05,24,00,22,11.40
2008,05,24,00,23,11.40
2008,05,24,00,24,11.40
2008,05,24,00,25,11.40
2008,05,24,00,26,11.40
2008,05,24,00,27,11.40
2008,05,24,00,28,11.50
2008,05,24,00,29,11.50
2008,05,24,00,30,11.50
2008,05,24,00,31,11.50
2008,05,24,00,32,11.50
2008,05,24,00,33,11.50
2008,05,24,00,34,11.50
2008,05,24,00,35,11.50
2008,05,24,00,36,11.50
2008,05,24,00,37,11.50
2008,05,24,00,38,11.50
2008,05,24,00,39,11.50
2008,05,24,00,40,11.50
2008,05,24,00,41,11.50
2008,05,24,00,42,11.50
2008,05,24,00,43,11.50
2008,05,24,00,44,11.50
2008,05,24,00,45,11.50
2008,05,24,00,46,11.50
2008,05,24,00,47,11.50
2008,05,24,00,48,11.50
2008,05,24,00,49,11.50
2008,05,24,00,50,11.50
2008,05,24,00,51,11.50
2008,05,24,00,52,11.50
2008,05,24,00,53,11.40
2008,05,24,00,54,11.40
2008,05,24,00,55,11.40
2008,05,24,00,56,11.40
2008,05,24,00,57,11.40
2008,05,24,00,58,11.40
2008,05,24,00,59,11.40
2008,05,24,01,00,11.40
2008,05,24,01,01,11.40
2008,05,24,01,02,11.40
2008,05,24,01,03,11.40
2008,05,24,01,04,11.40
2008,05,24,01,05,11.40
2008,05,24,01,06,11.40
2008,05,24,01,07,11.40
2008,05,24,01,08,11.50
2008,05,24,01,09,11.50
2008,05,24,01,10,11.50
2008,05,24,01,11,11.50
2008,05,24,01,12,11.50
2008,05,24,01,13,11.60
2008,05,24,01,14,11.60
2008,05,24,01,15,11.60
2008,05,24,01,16,11.60
2008,05,24,01,17,11.60
2008,05,24,01,18,11.60
2008,05,24,01,19,11.60
2008,05,24,01,20,11.60
2008,05,24,01,21,11.60
2008,05,24,01,22,11.70
2008,05,24,01,23,11.70
2008,05,24,01,24,11.70
2008,05,24,01,25,11.70
2008,05,24,01,26,11.70
2008,05,24,01,27,11.70
2008,05,24,01,28,11.70
2008,05,24,01,29,11.70
2008,05,24,01,30,11.70
2008,05,24,01,31,11.70
2008,05,24,01,32,11.70
2008,05,24,01,33,11.70
2008,05,24,01,34,11.70
2008,05,24,01,35,11.70
2008,05,24,01,36,11.70
2008,05,24,01,37,11.70
2008,05,24,01,38,11.70
2008,05,24,01,39,11.70
2008,05,24,01,40,11.70
2008,05,24,01,41,11.70
2008,05,24,01,42,11.70
2008,05,24,01,43,11.70
2008,05,24,01,44,11.70
2008,05,24,01,45,11.70
2008,05,24,01,46,11.70
2008,05,24,01,47,11.70
2008,05,24,01,48,11.60
2008,05,24,01,49,11.60
2008,05,24,01,50,11.60
2008,05,24,01,51,11.60
2008,05,24,01,52,11.60
2008,05,24,01,53,11.60
2008,05,24,01,54,11.50
2008,05,24,01,55,11.50
2008,05,24,01,56,11.50
2008,05,24,01,57,11.50
2008,05,24,01,58,11.50
2008,05,24,01,59,11.40
2008,05,24,02,00,11.40
2008,05,24,02,01,11.40
2008,05,24,02,02,11.40
2008,05,24,02,03,11.40
2008,05,24,02,04,11.40
2008,05,24,02,05,11.40
2008,05,24,02,06,11.40
2008,05,24,02,07,11.40
2008,05,24,02,08,11.40
2008,05,24,02,09,11.40
2008,05,24,02,10,11.40
2008,05,24,02,11,11.40
2008,05,24,02,12,11.50
2008,05,24,02,13,11.50
2008,05,24,02,14,11.50
2008,05,24,02,15,11.50
2008,05,24,02,16,11.50
2008,05,24,02,17,11.50
2008,05,24,02,18,11.50
2008,05,24,02,19,11.50
2008,05,24,02,20,11.50
2008,05,24,02,21,11.60
2008,05,24,02,22,11.60
2008,05,24,02,23,11.60
2008,05,24,02,24,11.60
2008,05,24,02,25,11.60
2008,05,24,02,26,11.60
2008,05,24,02,27,11.60
2008,05,24,02,28,11.50
2008,05,24,02,29,11.50
2008,05,24,02,30,11.50
2008,05,24,02,31,11.50
2008,05,24,02,32,11.50
2008,05,24,02,33,11.40
2008,05,24,02,34,11.40
2008,05,24,02,35,11.40
2008,05,24,02,36,11.40
2008,05,24,02,37,11.40
2008,05,24,02,38,11.40
2008,05,24,02,39,11.40
2008,05,24,02,40,11.40
2008,05,24,02,41,11.40
2008,05,24,02,42,11.40
2008,05,24,02,43,11.40
2008,05,24,02,44,11.40
2008,05,24,02,45,11.40
2008,05,24,02,46,11.40
2008,05,24,02,47,11.40
2008,05,24,02,48,11.40
2008,05,24,02,49,11.40
2008,05,24,02,50,11.40
2008,05,24,02,51,11.40
2008,05,24,02,52,11.40
2008,05,24,02,53,11.40
2008,05,24,02,54,11.40
2008,05,24,02,55,11.40
2008,05,24,02,56,11.40
2008,05,24,02,57,11.40
2008,05,24,02,58,11.40
2008,05,24,02,59,11.40
2008,05,24,03,00,11.40
2008,05,24,03,01,11.40
2008,05,24,03,02,11.40
2008,05,24,03,03,11.40
2008,05,24,03,04,11.40
2008,05,24,03,05,11.40
2008,05,24,03,06,11.40
2008,05,24,03,07,11.40
2008,05,24,03,08,11.40
2008,05,24,03,09,11.40
2008,05,24,03,10,11.40
2008,05,24,03,11,11.40
2008,05,24,03,12,11.40
2008,05,24,03,13,11.40
2008,05,24,03,14,11.40
2008,05,24,03,15,11.40
2008,05,24,03,16,11.40
2008,05,24,03,17,11.40
2008,05,24,03,18,11.40
2008,05,24,03,19,11.40
2008,05,24,03,20,11.40
2008,05,24,03,21,11.40
2008,05,24,03,22,11.40
2008,05,24,03,23,11.40
2008,05,24,03,24,11.40
2008,05,24,03,25,11.40
2008,05,24,03,26,11.40
2008,05,24,03,27,11.40
2008,05,24,03,28,11.40
2008,05,24,03,29,11.40
2008,05,24,03,30,11.40
2008,05,24,03,31,11.40
2008,05,24,03,32,11.40
2008,05,24,03,33,11.40
2008,05,24,03,34,11.40
2008,05,24,03,35,11.40
2008,05,24,03,36,11.40
2008,05,24,03,37,11.40
2008,05,24,03,38,11.40
2008,05,24,03,39,11.40
2008,05,24,03,40,11.40
2008,05,24,03,41,11.50
2008,05,24,03,42,11.50
2008,05,24,03,43,11.50
2008,05,24,03,44,11.50
2008,05,24,03,45,11.50
2008,05,24,03,46,11.60
2008,05,24,03,47,11.60
2008,05,24,03,48,11.60
2008,05,24,03,49,11.60
2008,05,24,03,50,11.60
2008,05,24,03,51,11.60
2008,05,24,03,52,11.60
2008,05,24,03,53,11.60
2008,05,24,03,54,11.60
2008,05,24,03,55,11.50
2008,05,24,03,56,11.50
2008,05,24,03,57,11.50
2008,05,24,03,58,11.50
2008,05,24,03,59,11.50
2008,05,24,04,00,11.50
2008,05,24,04,01,11.50
2008,05,24,04,02,11.40
2008,05,24,04,03,11.40
2008,05,24,04,04,11.40
2008,05,24,04,05,11.40
2008,05,24,04,06,11.40
2008,05,24,04,07,11.40
2008,05,24,04,08,11.40
2008,05,24,04,09,11.40
2008,05,24,04,10,11.40
2008,05,24,04,11,11.40
2008,05,24,04,12,11.40
2008,05,24,04,13,11.40
2008,05,24,04,14,11.30
2008,05,24,04,15,11.30
2008,05,24,04,16,11.30
2008,05,24,04,17,11.30
2008,05,24,04,18,11.30
2008,05,24,04,19,11.30
2008,05,24,04,20,11.30
2008,05,24,04,21,11.30
2008,05,24,04,22,11.30
2008,05,24,04,23,11.30
2008,05,24,04,24,11.30
2008,05,24,04,25,11.30
2008,05,24,04,26,11.30
2008,05,24,04,27,11.30
2008,05,24,04,28,11.30
2008,05,24,04,29,11.30
2008,05,24,04,30,11.30
2008,05,24,04,31,11.30
2008,05,24,04,32,11.30
2008,05,24,04,33,11.30
2008,05,24,04,34,11.30
2008,05,24,04,35,11.30
2008,05,24,04,36,11.30
2008,05,24,04,37,11.30
2008,05,24,04,38,11.30
2008,05,24,04,39,11.30
2008,05,24,04,40,11.30
2008,05,24,04,41,11.30
2008,05,24,04,42,11.30
2008,05,24,04,43,11.30
2008,05,24,04,44,11.30
2008,05,24,04,45,11.30
2008,05,24,04,46,11.30
2008,05,24,04,47,11.30
2008,05,24,04,48,11.30
2008,05,24,04,49,11.30
2008,05,24,04,50,11.30
2008,05,24,04,51,11.30
2008,05,24,04,52,11.30
2008,05,24,04,53,11.30
2008,05,24,04,54,11.30
2008,05,24,04,55,11.30
2008,05,24,04,56,11.30
2008,05,24,04,57,11.30
2008,05,24,04,58,11.30
2008,05,24,04,59,11.30
2008,05,24,05,00,11.30
2008,05,24,05,01,11.30
2008,05,24,05,02,11.30
2008,05,24,05,03,11.30
2008,05,24,05,04,11.30
2008,05,24,05,05,11.30
2008,05,24,05,06,11.30
2008,05,24,05,07,11.40
2008,05,24,05,08,11.40
2008,05,24,05,09,11.40
2008,05,24,05,10,11.40
2008,05,24,05,11,11.40
2008,05,24,05,12,11.40
2008,05,24,05,13,11.40
2008,05,24,05,14,11.50
2008,05,24,05,15,11.50
2008,05,24,05,16,11.50
2008,05,24,05,17,11.50
2008,05,24,05,18,11.50
2008,05,24,05,19,11.60
2008,05,24,05,20,11.60
2008,05,24,05,21,11.60
2008,05,24,05,22,11.50
2008,05,24,05,23,11.50
2008,05,24,05,24,11.60
2008,05,24,05,25,11.60
2008,05,24,05,26,11.60
2008,05,24,05,27,11.50
2008,05,24,05,28,11.50
2008,05,24,05,29,11.50
2008,05,24,05,30,11.50
2008,05,24,05,31,11.50
2008,05,24,05,32,11.50
2008,05,24,05,33,11.50
2008,05,24,05,34,11.50
2008,05,24,05,35,11.60
2008,05,24,05,36,11.60
2008,05,24,05,37,11.60
2008,05,24,05,38,11.60
2008,05,24,05,39,11.60
2008,05,24,05,40,11.60
2008,05,24,05,41,11.60
2008,05,24,05,42,11.60
2008,05,24,05,43,11.60
2008,05,24,05,44,11.60
2008,05,24,05,45,11.60
2008,05,24,05,46,11.60
2008,05,24,05,47,11.60
2008,05,24,05,48,11.60
2008,05,24,05,49,11.60
2008,05,24,05,50,11.60
2008,05,24,05,51,11.60
2008,05,24,05,52,11.60
2008,05,24,05,53,11.60
2008,05,24,05,54,11.60
2008,05,24,05,55,11.60
2008,05,24,05,56,11.60
2008,05,24,05,57,11.60
2008,05,24,05,58,11.60
2008,05,24,05,59,11.60
2008,05,24,06,00,11.60
2008,05,24,06,01,11.60
2008,05,24,06,02,11.60
2008,05,24,06,03,11.60
2008,05,24,06,04,11.60
2008,05,24,06,05,11.60
2008,05,24,06,06,11.60
2008,05,24,06,07,11.60
2008,05,24,06,08,11.60
2008,05,24,06,09,11.60
2008,05,24,06,10,11.70
2008,05,24,06,11,11.70
2008,05,24,06,12,11.70
2008,05,24,06,13,11.70
2008,05,24,06,14,11.70
2008,05,24,06,15,11.80
2008,05,24,06,16,11.80
2008,05,24,06,17,11.80
2008,05,24,06,18,11.80
2008,05,24,06,19,11.80
2008,05,24,06,20,11.80
2008,05,24,06,21,11.80
2008,05,24,06,22,11.80
2008,05,24,06,23,11.80
2008,05,24,06,24,11.80
2008,05,24,06,25,11.80
2008,05,24,06,26,11.80
2008,05,24,06,27,11.80
2008,05,24,06,28,11.80
2008,05,24,06,29,11.80
2008,05,24,06,30,11.90
2008,05,24,06,31,11.80
2008,05,24,06,32,11.90
2008,05,24,06,33,11.90
2008,05,24,06,34,11.90
2008,05,24,06,35,11.90
2008,05,24,06,36,11.90
2008,05,24,06,37,11.90
2008,05,24,06,38,11.90
2008,05,24,06,39,11.90
2008,05,24,06,40,12.00
2008,05,24,06,41,12.00
2008,05,24,06,42,12.00
2008,05,24,06,43,12.10
2008,05,24,06,44,12.10
2008,05,24,06,45,12.10
2008,05,24,06,46,12.10
2008,05,24,06,47,12.10
2008,05,24,06,48,12.20
2008,05,24,06,49,12.20
2008,05,24,06,50,12.20
2008,05,24,06,51,12.20
2008,05,24,06,52,12.30
2008,05,24,06,53,12.30
2008,05,24,06,54,12.30
2008,05,24,06,55,12.30
2008,05,24,06,56,12.30
2008,05,24,06,57,12.30
2008,05,24,06,58,12.30
2008,05,24,06,59,12.30
2008,05,24,07,00,12.30
2008,05,24,07,01,12.30
2008,05,24,07,02,12.30
2008,05,24,07,03,12.40
2008,05,24,07,04,12.40
2008,05,24,07,05,12.40
2008,05,24,07,06,12.40
2008,05,24,07,07,12.40
2008,05,24,07,08,12.40
2008,05,24,07,09,12.40
2008,05,24,07,10,12.50
2008,05,24,07,11,12.50
2008,05,24,07,12,12.50
2008,05,24,07,13,12.50
2008,05,24,07,14,12.50
2008,05,24,07,15,12.50
2008,05,24,07,16,12.60
2008,05,24,07,17,12.60
2008,05,24,07,18,12.60
2008,05,24,07,19,12.60
2008,05,24,07,20,12.60
2008,05,24,07,21,12.70
2008,05,24,07,22,12.70
2008,05,24,07,23,12.70
2008,05,24,07,24,12.70
2008,05,24,07,25,12.70
2008,05,24,07,26,12.80
2008,05,24,07,27,12.80
2008,05,24,07,28,12.80
2008,05,24,07,29,12.80
2008,05,24,07,30,12.80
2008,05,24,07,31,12.90
2008,05,24,07,32,12.90
2008,05,24,07,33,12.90
2008,05,24,07,34,13.00
2008,05,24,07,35,13.00
2008,05,24,07,36,13.00
2008,05,24,07,37,13.10
2008,05,24,07,38,13.10
2008,05,24,07,39,13.10
2008,05,24,07,40,13.10
2008,05,24,07,41,13.10
2008,05,24,07,42,13.10
2008,05,24,07,43,13.10
2008,05,24,07,44,13.20
2008,05,24,07,45,13.20
2008,05,24,07,46,13.20
2008,05,24,07,47,13.20
2008,05,24,07,48,13.30
2008,05,24,07,49,13.30
2008,05,24,07,50,13.30
2008,05,24,07,51,13.40
2008,05,24,07,52,13.40
2008,05,24,07,53,13.40
2008,05,24,07,54,13.50
2008,05,24,07,55,13.60
2008,05,24,07,56,13.60
2008,05,24,07,57,13.60
2008,05,24,07,58,13.60
2008,05,24,07,59,13.60
2008,05,24,08,00,13.60
2008,05,24,08,01,13.60
2008,05,24,08,02,13.70
2008,05,24,08,03,13.70
2008,05,24,08,04,13.70
2008,05,24,08,05,13.70
2008,05,24,08,06,13.70
2008,05,24,08,07,13.70
2008,05,24,08,08,13.70
2008,05,24,08,09,13.70
2008,05,24,08,10,13.70
2008,05,24,08,11,13.70
2008,05,24,08,12,13.70
2008,05,24,08,13,13.70
2008,05,24,08,14,13.60
2008,05,24,08,15,13.50
2008,05,24,08,16,13.50
2008,05,24,08,17,13.50
2008,05,24,08,18,13.40
2008,05,24,08,19,13.40
2008,05,24,08,20,13.40
2008,05,24,08,21,13.40
2008,05,24,08,22,13.50
2008,05,24,08,23,13.50
2008,05,24,08,24,13.50
2008,05,24,08,25,13.50
2008,05,24,08,26,13.60
2008,05,24,08,27,13.60
2008,05,24,08,28,13.60
2008,05,24,08,29,13.60
2008,05,24,08,30,13.70
2008,05,24,08,31,13.70
2008,05,24,08,32,13.70
2008,05,24,08,33,13.70
2008,05,24,08,34,13.70
2008,05,24,08,35,13.80
2008,05,24,08,36,13.80
2008,05,24,08,37,13.80
2008,05,24,08,38,13.80
2008,05,24,08,39,13.90
2008,05,24,08,40,13.90
2008,05,24,08,41,13.90
2008,05,24,08,42,13.90
2008,05,24,08,43,14.00
2008,05,24,08,44,14.00
2008,05,24,08,45,14.10
2008,05,24,08,46,14.10
2008,05,24,08,47,14.10
2008,05,24,08,48,14.20
2008,05,24,08,49,14.20
2008,05,24,08,50,14.30
2008,05,24,08,51,14.30
2008,05,24,08,52,14.30
2008,05,24,08,53,14.30
2008,05,24,08,54,14.30
2008,05,24,08,55,14.40
2008,05,24,08,56,14.40
2008,05,24,08,57,14.40
2008,05,24,08,58,14.40
2008,05,24,08,59,14.40
2008,05,24,09,00,14.40
2008,05,24,09,01,14.40
2008,05,24,09,02,14.40
2008,05,24,09,03,14.50
2008,05,24,09,04,14.50
2008,05,24,09,05,14.50
2008,05,24,09,06,14.60
2008,05,24,09,07,14.60
2008,05,24,09,08,14.60
2008,05,24,09,09,14.60
2008,05,24,09,10,14.60
2008,05,24,09,11,14.60
2008,05,24,09,12,14.60
2008,05,24,09,13,14.70
2008,05,24,09,14,14.70
2008,05,24,09,15,14.70
2008,05,24,09,16,14.80
2008,05,24,09,17,14.80
2008,05,24,09,18,14.90
2008,05,24,09,19,15.00
2008,05,24,09,20,15.00
2008,05,24,09,21,15.00
2008,05,24,09,22,15.00
2008,05,24,09,23,15.00
2008,05,24,09,24,15.00
2008,05,24,09,25,15.00
2008,05,24,09,26,15.00
2008,05,24,09,27,15.00
2008,05,24,09,28,15.00
2008,05,24,09,29,15.00
2008,05,24,09,30,15.00
2008,05,24,09,31,15.00
2008,05,24,09,32,15.00
2008,05,24,09,33,15.00
2008,05,24,09,34,15.00
2008,05,24,09,35,15.00
2008,05,24,09,36,15.10
2008,05,24,09,37,15.10
2008,05,24,09,38,15.20
2008,05,24,09,39,15.20
2008,05,24,09,40,15.20
2008,05,24,09,41,15.30
2008,05,24,09,42,15.30
2008,05,24,09,43,15.40
2008,05,24,09,44,15.50
2008,05,24,09,45,15.50
2008,05,24,09,46,15.50
2008,05,24,09,47,15.60
2008,05,24,09,48,15.60
2008,05,24,09,49,15.60
2008,05,24,09,50,15.60
2008,05,24,09,51,15.70
2008,05,24,09,52,15.70
2008,05,24,09,53,15.70
2008,05,24,09,54,15.70
2008,05,24,09,55,15.70
2008,05,24,09,56,15.70
2008,05,24,09,57,15.70
2008,05,24,09,58,15.70
2008,05,24,09,59,15.70
2008,05,24,10,00,15.70
2008,05,24,10,01,15.70
2008,05,24,10,02,15.70
2008,05,24,10,03,15.70
2008,05,24,10,04,15.70
2008,05,24,10,05,15.70
2008,05,24,10,06,15.70
2008,05,24,10,07,15.80
2008,05,24,10,08,15.90
2008,05,24,10,09,15.90
2008,05,24,10,10,16.00
2008,05,24,10,11,16.00
2008,05,24,10,12,16.10
2008,05,24,10,13,16.20
2008,05,24,10,14,16.30
2008,05,24,10,15,16.30
2008,05,24,10,16,16.40
2008,05,24,10,17,16.40
2008,05,24,10,18,16.50
2008,05,24,10,19,16.50
2008,05,24,10,20,16.60
2008,05,24,10,21,16.70
2008,05,24,10,22,16.70
2008,05,24,10,23,16.80
2008,05,24,10,24,16.80
2008,05,24,10,25,16.90
2008,05,24,10,26,17.00
2008,05,24,10,27,17.00
2008,05,24,10,28,17.10
2008,05,24,10,29,17.20
2008,05,24,10,30,17.20
2008,05,24,10,31,17.30
2008,05,24,10,32,17.30
2008,05,24,10,33,17.40
2008,05,24,10,34,17.40
2008,05,24,10,35,17.50
2008,05,24,10,36,17.50
2008,05,24,10,37,17.60
2008,05,24,10,38,17.70
2008,05,24,10,39,17.70
2008,05,24,10,40,17.70
2008,05,24,10,41,17.70
2008,05,24,10,42,17.70
2008,05,24,10,43,17.80
2008,05,24,10,44,17.90
2008,05,24,10,45,17.90
2008,05,24,10,46,18.00
2008,05,24,10,47,18.10
2008,05,24,10,48,18.20
2008,05,24,10,49,18.20
2008,05,24,10,50,18.20
2008,05,24,10,51,18.20
2008,05,24,10,52,18.30
2008,05,24,10,53,18.30
2008,05,24,10,54,18.40
2008,05,24,10,55,18.40
2008,05,24,10,56,18.50
2008,05,24,10,57,18.50
2008,05,24,10,58,18.60
2008,05,24,10,59,18.70
2008,05,24,11,00,18.70
2008,05,24,11,01,18.70
2008,05,24,11,02,18.80
2008,05,24,11,03,18.90
2008,05,24,11,04,18.90
2008,05,24,11,05,19.00
2008,05,24,11,06,19.00
2008,05,24,11,07,19.10
2008,05,24,11,08,19.10
2008,05,24,11,09,19.20
2008,05,24,11,10,19.30
2008,05,24,11,11,19.40
2008,05,24,11,12,19.50
2008,05,24,11,13,19.50
2008,05,24,11,14,19.70
2008,05,24,11,15,19.80
2008,05,24,11,16,19.80
2008,05,24,11,17,19.80
2008,05,24,11,18,19.70
2008,05,24,11,19,19.60
2008,05,24,11,20,19.60
2008,05,24,11,21,19.60
2008,05,24,11,22,19.50
2008,05,24,11,23,19.50
2008,05,24,11,24,19.60
2008,05,24,11,25,19.60
2008,05,24,11,26,19.60
2008,05,24,11,27,19.60
2008,05,24,11,28,19.60
2008,05,24,11,29,19.60
2008,05,24,11,30,19.60
2008,05,24,11,31,19.60
2008,05,24,11,32,19.60
2008,05,24,11,33,19.60
2008,05,24,11,34,19.80
2008,05,24,11,35,19.80
2008,05,24,11,36,19.90
2008,05,24,11,37,20.00
2008,05,24,11,38,20.10
2008,05,24,11,39,20.20
2008,05,24,11,40,20.20
2008,05,24,11,41,20.20
2008,05,24,11,42,20.20
2008,05,24,11,43,20.30
2008,05,24,11,44,20.30
2008,05,24,11,45,20.30
2008,05,24,11,46,20.20
2008,05,24,11,47,20.00
2008,05,24,11,48,20.00
2008,05,24,11,49,20.00
2008,05,24,11,50,20.10
2008,05,24,11,51,20.20
2008,05,24,11,52,20.20
2008,05,24,11,53,20.20
2008,05,24,11,54,20.20
2008,05,24,11,55,20.20
2008,05,24,11,56,20.30
2008,05,24,11,57,20.30
2008,05,24,11,58,20.30
2008,05,24,11,59,20.30
2008,05,24,12,00,20.30
2008,05,24,12,01,20.30
2008,05,24,12,02,20.30
2008,05,24,12,03,20.30
2008,05,24,12,04,20.40
2008,05,24,12,05,20.40
2008,05,24,12,06,20.40
2008,05,24,12,07,20.50
2008,05,24,12,08,20.50
2008,05,24,12,09,20.50
2008,05,24,12,10,20.50
2008,05,24,12,11,20.50
2008,05,24,12,12,20.60
2008,05,24,12,13,20.70
2008,05,24,12,14,20.80
2008,05,24,12,15,20.90
2008,05,24,12,16,21.00
2008,05,24,12,17,21.10
2008,05,24,12,18,21.30
2008,05,24,12,19,21.30
2008,05,24,12,20,21.30
2008,05,24,12,21,21.30
2008,05,24,12,22,21.30
2008,05,24,12,23,21.20
2008,05,24,12,24,21.10
2008,05,24,12,25,21.10
2008,05,24,12,26,21.10
2008,05,24,12,27,21.00
2008,05,24,12,28,20.90
2008,05,24,12,29,20.90
2008,05,24,12,30,20.90
2008,05,24,12,31,20.90
2008,05,24,12,32,20.90
2008,05,24,12,33,21.00
2008,05,24,12,34,21.10
2008,05,24,12,35,21.20
2008,05,24,12,36,21.20
2008,05,24,12,37,21.30
2008,05,24,12,38,21.40
2008,05,24,12,39,21.40
2008,05,24,12,40,21.30
2008,05,24,12,41,21.20
2008,05,24,12,42,21.30
2008,05,24,12,43,21.30
2008,05,24,12,44,21.30
2008,05,24,12,45,21.20
2008,05,24,12,46,21.10
2008,05,24,12,47,21.00
2008,05,24,12,48,21.10
2008,05,24,12,49,21.20
2008,05,24,12,50,21.20
2008,05,24,12,51,21.20
2008,05,24,12,52,21.30
2008,05,24,12,53,21.20
2008,05,24,12,54,21.30
2008,05,24,12,55,21.30
2008,05,24,12,56,21.30
2008,05,24,12,57,21.30
2008,05,24,12,58,21.40
2008,05,24,12,59,21.40
2008,05,24,13,00,21.40
2008,05,24,13,01,21.40
2008,05,24,13,02,21.40
2008,05,24,13,03,21.40
2008,05,24,13,04,21.50
2008,05,24,13,05,21.60
2008,05,24,13,06,21.60
2008,05,24,13,07,21.70
2008,05,24,13,08,21.70
2008,05,24,13,09,21.70
2008,05,24,13,10,21.80
2008,05,24,13,11,21.80
2008,05,24,13,12,21.80
2008,05,24,13,13,21.90
2008,05,24,13,14,21.90
2008,05,24,13,15,22.00
2008,05,24,13,16,22.00
2008,05,24,13,17,21.90
2008,05,24,13,18,22.00
2008,05,24,13,19,22.10
2008,05,24,13,20,22.10
2008,05,24,13,21,22.10
2008,05,24,13,22,22.20
2008,05,24,13,23,22.20
2008,05,24,13,24,22.30
2008,05,24,13,25,22.30
2008,05,24,13,26,22.20
2008,05,24,13,27,22.10
2008,05,24,13,28,22.00
2008,05,24,13,29,21.90
2008,05,24,13,30,21.90
2008,05,24,13,31,21.90
2008,05,24,13,32,21.80
2008,05,24,13,33,21.80
2008,05,24,13,34,21.80
2008,05,24,13,35,21.90
2008,05,24,13,36,21.80
2008,05,24,13,37,21.80
2008,05,24,13,38,21.70
2008,05,24,13,39,21.70
2008,05,24,13,40,21.80
2008,05,24,13,41,21.90
2008,05,24,13,42,22.00
2008,05,24,13,43,22.20
2008,05,24,13,44,22.20
2008,05,24,13,45,22.20
2008,05,24,13,46,22.20
2008,05,24,13,47,22.30
2008,05,24,13,48,22.20
2008,05,24,13,49,22.20
2008,05,24,13,50,22.30
2008,05,24,13,51,22.30
2008,05,24,13,52,22.40
2008,05,24,13,53,22.40
2008,05,24,13,54,22.40
2008,05,24,13,55,22.40
2008,05,24,13,56,22.40
2008,05,24,13,57,22.40
2008,05,24,13,58,22.40
2008,05,24,13,59,22.30
2008,05,24,14,00,22.20
2008,05,24,14,01,22.20
2008,05,24,14,02,22.20
2008,05,24,14,03,22.20
2008,05,24,14,04,22.30
2008,05,24,14,05,22.40
2008,05,24,14,06,22.40
2008,05,24,14,07,22.40
2008,05,24,14,08,22.40
2008,05,24,14,09,22.40
2008,05,24,14,10,22.30
2008,05,24,14,11,22.30
2008,05,24,14,12,22.20
2008,05,24,14,13,22.20
2008,05,24,14,14,22.30
2008,05,24,14,15,22.30
2008,05,24,14,16,22.50
2008,05,24,14,17,22.70
2008,05,24,14,18,22.90
2008,05,24,14,19,23.00
2008,05,24,14,20,23.10
2008,05,24,14,21,23.10
2008,05,24,14,22,23.00
2008,05,24,14,23,22.90
2008,05,24,14,24,22.80
2008,05,24,14,25,22.70
2008,05,24,14,26,22.70
2008,05,24,14,27,22.70
2008,05,24,14,28,22.70
2008,05,24,14,29,22.70
2008,05,24,14,30,22.60
2008,05,24,14,31,22.60
2008,05,24,14,32,22.60
2008,05,24,14,33,22.70
2008,05,24,14,34,22.80
2008,05,24,14,35,22.90
2008,05,24,14,36,22.90
2008,05,24,14,37,22.90
2008,05,24,14,38,22.90
2008,05,24,14,39,22.90
2008,05,24,14,40,22.80
2008,05,24,14,41,22.90
2008,05,24,14,42,22.90
2008,05,24,14,43,22.90
2008,05,24,14,44,23.00
2008,05,24,14,45,23.20
2008,05,24,14,46,23.30
2008,05,24,14,47,23.40
2008,05,24,14,48,23.60
2008,05,24,14,49,23.70
2008,05,24,14,50,23.70
2008,05,24,14,51,23.70
2008,05,24,14,52,23.80
2008,05,24,14,53,23.70
2008,05,24,14,54,23.70
2008,05,24,14,55,23.70
2008,05,24,14,56,23.70
2008,05,24,14,57,23.60
2008,05,24,14,58,23.60
2008,05,24,14,59,23.50
2008,05,24,15,00,23.40
2008,05,24,15,01,23.40
2008,05,24,15,02,23.30
2008,05,24,15,03,23.20
2008,05,24,15,04,23.00
2008,05,24,15,05,22.90
2008,05,24,15,06,22.80
2008,05,24,15,07,22.70
2008,05,24,15,08,22.70
2008,05,24,15,09,22.60
2008,05,24,15,10,22.50
2008,05,24,15,11,22.40
2008,05,24,15,12,22.40
2008,05,24,15,13,22.40
2008,05,24,15,14,22.40
2008,05,24,15,15,22.40
2008,05,24,15,16,22.40
2008,05,24,15,17,22.40
2008,05,24,15,18,22.40
2008,05,24,15,19,22.40
2008,05,24,15,20,22.50
2008,05,24,15,21,22.50
2008,05,24,15,22,22.50
2008,05,24,15,23,22.40
2008,05,24,15,24,22.30
2008,05,24,15,25,22.30
2008,05,24,15,26,22.30
2008,05,24,15,27,22.30
2008,05,24,15,28,22.20
2008,05,24,15,29,22.10
2008,05,24,15,30,22.10
2008,05,24,15,31,22.20
2008,05,24,15,32,22.20
2008,05,24,15,33,22.20
2008,05,24,15,34,22.30
2008,05,24,15,35,22.40
2008,05,24,15,36,22.60
2008,05,24,15,37,22.70
2008,05,24,15,38,22.80
2008,05,24,15,39,23.00
2008,05,24,15,40,23.10
2008,05,24,15,41,23.20
2008,05,24,15,42,23.30
2008,05,24,15,43,23.30
2008,05,24,15,44,23.20
2008,05,24,15,45,23.20
2008,05,24,15,46,23.10
2008,05,24,15,47,23.20
2008,05,24,15,48,23.20
2008,05,24,15,49,23.20
2008,05,24,15,50,23.20
2008,05,24,15,51,23.20
2008,05,24,15,52,23.20
2008,05,24,15,53,23.20
2008,05,24,15,54,23.20
2008,05,24,15,55,23.20
2008,05,24,15,56,23.20
2008,05,24,15,57,23.20
2008,05,24,15,58,23.20
2008,05,24,15,59,23.20
2008,05,24,16,00,23.20
2008,05,24,16,01,23.20
2008,05,24,16,02,23.20
2008,05,24,16,03,23.20
2008,05,24,16,04,23.10
2008,05,24,16,05,23.10
2008,05,24,16,06,23.00
2008,05,24,16,07,23.00
2008,05,24,16,08,23.10
2008,05,24,16,09,23.10
2008,05,24,16,10,23.10
2008,05,24,16,11,23.10
2008,05,24,16,12,23.10
2008,05,24,16,13,23.20
2008,05,24,16,14,23.10
2008,05,24,16,15,23.10
2008,05,24,16,16,23.10
2008,05,24,16,17,23.10
2008,05,24,16,18,23.00
2008,05,24,16,19,23.10
2008,05,24,16,20,23.10
2008,05,24,16,21,23.10
2008,05,24,16,22,23.20
2008,05,24,16,23,23.20
2008,05,24,16,24,23.20
2008,05,24,16,25,23.20
2008,05,24,16,26,23.10
2008,05,24,16,27,23.20
2008,05,24,16,28,23.20
2008,05,24,16,29,23.10
2008,05,24,16,30,23.00
2008,05,24,16,31,23.00
2008,05,24,16,32,23.00
2008,05,24,16,33,22.90
2008,05,24,16,34,22.80
2008,05,24,16,35,22.80
2008,05,24,16,36,22.80
2008,05,24,16,37,22.70
2008,05,24,16,38,22.70
2008,05,24,16,39,22.60
2008,05,24,16,40,22.60
2008,05,24,16,41,22.70
2008,05,24,16,42,22.80
2008,05,24,16,43,22.80
2008,05,24,16,44,22.90
2008,05,24,16,45,22.90
2008,05,24,16,46,22.90
2008,05,24,16,47,22.90
2008,05,24,16,48,22.90
2008,05,24,16,49,23.00
2008,05,24,16,50,23.00
2008,05,24,16,51,23.10
2008,05,24,16,52,23.20
2008,05,24,16,53,23.30
2008,05,24,16,54,23.40
2008,05,24,16,55,23.50
2008,05,24,16,56,23.60
2008,05,24,16,57,23.80
2008,05,24,16,58,23.90
2008,05,24,16,59,24.10
2008,05,24,17,00,24.20
2008,05,24,17,01,24.40
2008,05,24,17,02,24.60
2008,05,24,17,03,24.70
2008,05,24,17,04,24.80
2008,05,24,17,05,24.80
2008,05,24,17,06,24.80
2008,05,24,17,07,24.70
2008,05,24,17,08,24.80
2008,05,24,17,09,24.80
2008,05,24,17,10,24.80
2008,05,24,17,11,24.90
2008,05,24,17,12,24.90
2008,05,24,17,13,24.90
2008,05,24,17,14,24.90
2008,05,24,17,15,25.00
2008,05,24,17,16,25.00
2008,05,24,17,17,25.00
2008,05,24,17,18,24.90
2008,05,24,17,19,24.80